Rechercher aéroport 
image banner adimage banner adimage banner ad
image banner ad

45CA - Chapin Medical Pad Heliport

Situé à Corona, United States

ICAO - 45CA, IATA -

Données fournies par Airmate  

Information générale

Coordonnées: N37°20'6" W121°59'59"
Élévation : 160 feet MSL.
 
Voir autres Aéroports à California

Données opérationnelles

Special qualification required
Heure actuelle UTC:
Heure actuelle locale:
METAR: KSJC 210153Z 32008KT 10SM FEW023 26/08 A2991 RMK AO2 SLP126 FU FEW023 T02610083
TAF: KSJC 202321Z 2100/2124 32012KT P6SM SKC FM210400 VRB04KT P6SM FEW200 FM212100 32009KT 6SM HZ FEW200
Voir NOTAMs / SUP AIP / TFR affectant cet aéroport [VIEW]
Fréquences de communication: [VIEW]

Pistes:

Coordonnées de l'aéroport

Adresse: Corona United States

Vue satellite de 45CA